Terminal Aerodrome Forecast
Issued by NWS Cleveland, OH

Home | Current Version | Previous Version | Text Only | Print | Product List | Glossary On
Versions: 1 2 3 4 5 6 7 8 9 10 11 12 13 14 15 16 17 18 19 20 21
000
FTUS41 KCLE 220200 AAA
TAFERI
TAF AMD
KERI 220256Z 2203/2224 VRB03KT P6SM VCSH BKN025
     FM221500 33005KT P6SM VCSH BKN035
     FM222000 34005KT P6SM BKN035=

USA.gov is the U.S. government's official web portal to all federal, state and local government web resources and services.